EG99N EDDF-ENGM

Flight info

Callsign EG99N
Flight time N/A
Altitude 39000
Route MARUN6E/07C MARUN Y150 TOLGI DCT ALASA DCT INVOL DCT SABAK/N0490F380 L997 LUNIP
Aircraft C750/M-SBDE3FGHRWXY/S

Departure

Time 2026-05-07 20:05
Airport Frankfurt Main Airport (EDDF)

Arrival

Time N/A
Airport Oslo-Gardermoen International Airport (ENGM)
Time Latitude Longitude Altitude Speed Heading
2026-05-07 19:05 50.02295 8.53285 331 ft 0 kts 339°
2026-05-07 19:40 50.02286 8.53290 331 ft 2 kts 340°
2026-05-07 19:41 50.02270 8.53302 330 ft 3 kts 312°
2026-05-07 19:41 50.02261 8.53326 331 ft 3 kts 271°
2026-05-07 19:41 50.02263 8.53352 330 ft 2 kts 250°
2026-05-07 19:41 50.02265 8.53361 331 ft 0 kts 249°
2026-05-07 19:49 50.02264 8.53359 331 ft 1 kts 248°
2026-05-07 19:49 50.02260 8.53344 330 ft 2 kts 247°
2026-05-07 19:49 50.02252 8.53313 328 ft 4 kts 247°
2026-05-07 19:50 50.02241 8.53269 330 ft 4 kts 258°
2026-05-07 19:50 50.02231 8.53223 330 ft 5 kts 249°
2026-05-07 19:50 50.02221 8.53185 329 ft 6 kts 249°
2026-05-07 19:50 50.02203 8.53114 330 ft 8 kts 247°
2026-05-07 19:51 50.02159 8.53065 331 ft 8 kts 230°
2026-05-07 19:51 50.02151 8.52988 329 ft 7 kts 265°
2026-05-07 19:51 50.02147 8.52923 332 ft 5 kts 265°
2026-05-07 19:51 50.02145 8.52870 332 ft 4 kts 273°
2026-05-07 19:52 50.02158 8.52835 331 ft 4 kts 321°
2026-05-07 19:52 50.02184 8.52830 332 ft 4 kts
2026-05-07 19:52 50.02220 8.52831 330 ft 6 kts
2026-05-07 19:52 50.02270 8.52829 332 ft 9 kts 359°
2026-05-07 19:53 50.02335 8.52845 332 ft 10 kts 39°
2026-05-07 19:53 50.02369 8.52955 330 ft 13 kts 68°
2026-05-07 19:53 50.02402 8.53090 330 ft 14 kts 70°
2026-05-07 19:53 50.02437 8.53239 333 ft 15 kts 70°
2026-05-07 19:54 50.02472 8.53384 332 ft 14 kts 70°
2026-05-07 19:54 50.02505 8.53521 332 ft 9 kts 70°
2026-05-07 19:54 50.02546 8.53576 333 ft 9 kts 350°
2026-05-07 19:54 50.02602 8.53544 331 ft 8 kts 339°
2026-05-07 19:55 50.02626 8.53531 332 ft 0 kts 340°
2026-05-07 19:59 50.02628 8.53530 330 ft 1 kts 340°
2026-05-07 19:59 50.02640 8.53524 332 ft 2 kts 340°
2026-05-07 19:59 50.02659 8.53513 330 ft 4 kts 340°
2026-05-07 20:00 50.02680 8.53500 333 ft 3 kts 339°
2026-05-07 20:00 50.02710 8.53483 333 ft 7 kts 339°
2026-05-07 20:00 50.02769 8.53440 334 ft 11 kts 320°
2026-05-07 20:00 50.02817 8.53346 331 ft 10 kts 307°
2026-05-07 20:01 50.02888 8.53300 333 ft 12 kts 359°
2026-05-07 20:01 50.02967 8.53350 332 ft 13 kts 33°
2026-05-07 20:01 50.03015 8.53479 333 ft 15 kts 69°
2026-05-07 20:01 50.03077 8.53605 331 ft 16 kts
2026-05-07 20:02 50.03185 8.53546 332 ft 17 kts 340°
2026-05-07 20:02 50.03272 8.53536 333 ft 12 kts 44°
2026-05-07 20:02 50.03298 8.53610 334 ft 0 kts 69°
2026-05-07 20:04 50.03298 8.53612 334 ft 2 kts 69°
2026-05-07 20:04 50.03384 8.53969 336 ft 89 kts 70°
2026-05-07 20:05 50.03696 8.55282 344 ft 159 kts 69°
2026-05-07 20:05 50.04101 8.56994 728 ft 179 kts 69°
2026-05-07 20:05 50.04589 8.58867 1264 ft 196 kts 66°
2026-05-07 20:05 50.05132 8.60891 2033 ft 201 kts 67°
2026-05-07 20:06 50.05689 8.62876 2918 ft 199 kts 64°
2026-05-07 20:06 50.06280 8.64785 3773 ft 198 kts 63°
2026-05-07 20:06 50.06909 8.66702 4617 ft 200 kts 60°
2026-05-07 20:06 50.07587 8.68630 5398 ft 210 kts 59°
2026-05-07 20:07 50.08312 8.70677 6253 ft 220 kts 59°
2026-05-07 20:07 50.09144 8.72704 7061 ft 229 kts 44°
2026-05-07 20:07 50.10604 8.73721 7748 ft 238 kts
2026-05-07 20:07 50.12196 8.74306 8892 ft 239 kts 20°
2026-05-07 20:08 50.13726 8.75479 9751 ft 248 kts 26°
2026-05-07 20:08 50.15222 8.76710 10898 ft 234 kts 27°
2026-05-07 20:08 50.16637 8.77900 11828 ft 236 kts 26°
2026-05-07 20:08 50.18092 8.79116 12724 ft 235 kts 26°
2026-05-07 20:09 50.19530 8.80289 13643 ft 234 kts 22°
2026-05-07 20:09 50.21055 8.81204 14397 ft 236 kts 15°
2026-05-07 20:09 50.22618 8.81993 15101 ft 238 kts 22°
2026-05-07 20:10 50.25579 8.84246 16789 ft 233 kts 25°
2026-05-07 20:10 50.26969 8.85377 17850 ft 224 kts 25°
2026-05-07 20:10 50.28408 8.86558 18314 ft 239 kts 22°
2026-05-07 20:10 50.30039 8.86842 18867 ft 240 kts 347°
2026-05-07 20:11 50.31666 8.86319 19653 ft 238 kts 346°
2026-05-07 20:11 50.33342 8.85792 20084 ft 257 kts 346°
2026-05-07 20:11 50.35173 8.85225 20422 ft 277 kts 346°
2026-05-07 20:11 50.37127 8.84622 20853 ft 294 kts 347°
2026-05-07 20:12 50.39184 8.83989 21347 ft 308 kts 347°
2026-05-07 20:12 50.41325 8.83332 21912 ft 318 kts 347°
2026-05-07 20:12 50.43533 8.82655 22514 ft 327 kts 347°
2026-05-07 20:12 50.45764 8.81972 23150 ft 335 kts 347°
2026-05-07 20:13 50.48103 8.81257 23801 ft 341 kts 347°
2026-05-07 20:13 50.50422 8.80548 24375 ft 346 kts 347°
2026-05-07 20:13 50.52805 8.79817 24984 ft 350 kts 347°
2026-05-07 20:13 50.55212 8.79076 25620 ft 354 kts 347°
2026-05-07 20:14 50.57636 8.78327 26268 ft 357 kts 347°
2026-05-07 20:14 50.60083 8.77569 26940 ft 360 kts 347°
2026-05-07 20:14 50.62548 8.76803 27626 ft 362 kts 347°
2026-05-07 20:14 50.65025 8.76032 28338 ft 364 kts 347°
2026-05-07 20:15 50.67517 8.75254 29063 ft 366 kts 347°
2026-05-07 20:15 50.70024 8.74469 29807 ft 367 kts 347°
2026-05-07 20:15 50.72505 8.73460 30380 ft 371 kts 341°
2026-05-07 20:15 50.74937 8.72063 30893 ft 374 kts 336°
2026-05-07 20:16 50.77302 8.70304 31424 ft 377 kts 332°
2026-05-07 20:16 50.79719 8.68663 31968 ft 380 kts 337°
2026-05-07 20:16 50.82211 8.67209 32530 ft 383 kts 339°
2026-05-07 20:16 50.84731 8.65813 33107 ft 384 kts 339°
2026-05-07 20:17 50.87264 8.64434 33687 ft 387 kts 339°
2026-05-07 20:17 50.89819 8.63052 34244 ft 389 kts 339°
2026-05-07 20:17 50.92386 8.61668 34723 ft 391 kts 339°
2026-05-07 20:17 50.94936 8.60299 35206 ft 393 kts 339°
2026-05-07 20:18 50.97569 8.58891 35684 ft 395 kts 339°